Location: Constantia
(34.0183°S, 18.4411°E)
Time: 00:31:43
(UTC+00:00)

Meteor 2-10 Rocket - Pass Details

Date: 17 February 2020
Orbit: 734 x 884 km, 81.2° (Epoch: 09 April)

Event Time Altitude Azimuth Distance (km) Brightness Sun altitude
Rises 02:15:25 0° 190° (S) 3,519 7.3 -24.6°
Reaches altitude 10° 02:17:54 10° 191° (S) 2,574 6.5 -24.1°
Maximum altitude 02:23:48 81° 276° (W) 902 3.7 -23.1°
Enters shadow 02:26:58 28° 0° (N) 1,578 4.8 -22.6°
